Back to catalog

STARLINK-36378

AliveCommunicationsSSO
NORAD 68025·PAYLOAD·🇺🇸 United States

Launched Mar 1, 2026 from Vandenberg Space Force Base

Loading…

Next Passes (next 24 hours)

TLE

FreshSource: CelesTrak SupGP

Epoch: Sep 14, 2026, 22:45 UTC

1 68025C 26040L   26257.94840278 -.00037342  00000+0 -11587-2 0  2578
2 68025  97.2855 205.3551 0001781  90.1610  10.4361 15.33470471    15

Track STARLINK-36378 in real time with AllMySat

Download on the App Store